Sigfox identifier Datetime Temperature Humidity SNR
003B5D67 2019-02-20 14:05:39 21.2 21 24.1
003B5D67 2019-02-20 14:04:22 21 21 24.1
003B5D67 2019-02-20 13:31:41 21 23 24.1
003B5D67 2019-02-20 12:58:59 21 24 23.4
003B5D67 2019-02-20 12:26:20 20.9 25 23.5
003B5D67 2019-02-20 11:53:37 20.9 25 23.5
003B5D67 2019-02-20 11:20:54 20.9 26 22.7
003B5D67 2019-02-20 10:15:31 20.9 27 21.7
003B5D67 2019-02-20 09:42:48 20.8 27 21.7
003B5D67 2019-02-20 09:10:06 20.8 27 20.4
003B5D67 2019-02-20 08:37:25 20.8 27 18.5
003B5D67 2019-02-20 08:04:42 20.8 27 18.3
003B5D67 2019-02-20 07:32:00 20.8 27 18.1
003B5D67 2019-02-20 06:59:18 20.8 27 17.8
003B5D67 2019-02-20 06:26:36 20.8 27 17.6
003B5D67 2019-02-20 05:53:54 20.8 27 17.7
003B5D67 2019-02-20 05:21:11 20.8 27 17.2
003B5D67 2019-02-20 04:48:30 20.8 27 17.1
003B5D67 2019-02-20 04:15:49 20.8 27 17
003B5D67 2019-02-20 03:43:07 20.8 27 16.8
003B5D67 2019-02-20 03:10:26 20.8 27 16.7
003B5D67 2019-02-20 02:37:44 20.9 27 16.5
003B5D67 2019-02-20 02:05:04 20.8 27 16.2
003B5D67 2019-02-20 01:32:21 20.8 27 16.5
003B5D67 2019-02-20 00:59:40 20.8 27 16.6
003B5D67 2019-02-20 00:26:58 20.9 27 16.1
003B5D67 2019-02-19 23:54:17 20.9 27 16
003B5D67 2019-02-19 23:21:35 20.9 27 16
003B5D67 2019-02-19 22:48:54 20.9 27 16.2
003B5D67 2019-02-19 22:16:12 20.9 27 15.9
003B5D67 2019-02-19 21:43:30 20.9 27 15.8
003B5D67 2019-02-19 21:10:49 21 27 15.9
003B5D67 2019-02-19 20:38:09 21 27 16.4
003B5D67 2019-02-19 20:05:29 21 27 16.6
003B5D67 2019-02-19 19:32:49 21 27 17
003B5D67 2019-02-19 19:00:10 21.1 27 17.4
003B5D67 2019-02-19 18:27:29 21.1 27 17.8
003B5D67 2019-02-19 17:54:47 21.2 27 17.8
003B5D67 2019-02-19 17:22:05 21.2 27 17.9
003B5D67 2019-02-19 16:49:24 21.2 28 18
003B5D67 2019-02-19 16:16:43 21.2 28 17.9
003B5D67 2019-02-19 15:44:03 21.2 28 18.3
003B5D67 2019-02-19 15:11:21 21.1 27 18.6
003B5D67 2019-02-19 14:38:40 21.2 27 18.6
003B5D67 2019-02-19 14:06:00 21.2 28 18.7
003B5D67 2019-02-19 13:33:19 21.1 28 19.1
003B5D67 2019-02-19 13:00:37 21.1 27 19.1
003B5D67 2019-02-19 12:28:00 21.1 27 19.2
003B5D67 2019-02-19 11:55:18 21.1 27 19.1
003B5D67 2019-02-19 11:22:41 21.3 27 18.9
003B5D67 2019-02-19 11:21:21 21.1 27 19.1
003B5D67 2019-02-19 10:16:01 20.9 27 19.2
003B5D67 2019-02-19 09:43:18 20.9 26 19.2
003B5D67 2019-02-19 09:10:37 20.9 26 19.2
003B5D67 2019-02-19 08:37:55 20.9 26 19.5
003B5D67 2019-02-19 08:05:14 20.8 25 19.5
003B5D67 2019-02-19 07:32:33 20.8 25 19.4
003B5D67 2019-02-19 06:59:50 20.8 25 19.1
003B5D67 2019-02-19 06:27:08 20.8 25 19
003B5D67 2019-02-19 05:54:26 20.8 25 18.7
003B5D67 2019-02-19 05:21:44 20.8 25 18.4
003B5D67 2019-02-19 04:49:03 20.8 25 20.2
003B5D67 2019-02-19 04:16:21 20.8 25 20
003B5D67 2019-02-19 03:43:40 20.8 24 20.1
003B5D67 2019-02-19 03:10:59 20.8 24 20
003B5D67 2019-02-19 02:38:16 20.8 24 19.9
003B5D67 2019-02-19 02:05:35 20.8 24 19.7
003B5D67 2019-02-19 01:32:53 20.8 24 19.7
003B5D67 2019-02-19 01:00:12 20.8 24 20
003B5D67 2019-02-19 00:27:30 20.9 24 20.2
003B5D67 2019-02-18 23:54:49 20.9 24 20.2
003B5D67 2019-02-18 23:22:08 20.9 23 20.3
003B5D67 2019-02-18 22:49:25 20.9 23 20.4
003B5D67 2019-02-18 22:16:45 20.9 23 20.3
003B5D67 2019-02-18 21:44:01 21 23 20.4
003B5D67 2019-02-18 21:11:19 21 23 20.3
003B5D67 2019-02-18 20:38:38 21 23 20.3
003B5D67 2019-02-18 20:05:55 20.9 22 20.2
003B5D67 2019-02-18 19:33:14 20.9 22 20.3
003B5D67 2019-02-18 19:00:33 21 22 20.1
003B5D67 2019-02-18 18:27:50 21 22 20.2
003B5D67 2019-02-18 17:55:08 21.1 22 20.3
003B5D67 2019-02-18 17:22:26 21.1 22 20.4
003B5D67 2019-02-18 16:49:47 21.1 22 20.4
003B5D67 2019-02-18 16:17:03 21.2 22 20.4
003B5D67 2019-02-18 15:44:20 21.2 22 20.5
003B5D67 2019-02-18 15:11:39 21.2 21 18.7
003B5D67 2019-02-18 14:38:57 21.3 21 18.9
003B5D67 2019-02-18 14:06:17 21.3 21 18.9
003B5D67 2019-02-18 13:33:32 21.4 20 18.9
003B5D67 2019-02-18 13:00:49 21.5 20 19.1
003B5D67 2019-02-18 12:28:09 21.6 20 19.2
003B5D67 2019-02-18 11:55:25 21.5 20 19
003B5D67 2019-02-18 11:22:43 21.5 20 18.7
003B5D67 2019-02-18 10:50:01 21.4 19 18.2
003B5D67 2019-02-18 10:17:19 21.4 19 17.9
003B5D67 2019-02-18 09:44:37 21.3 19 17.5
003B5D67 2019-02-18 09:11:55 21.3 19 17.6
003B5D67 2019-02-18 08:39:15 21.4 19 17.7
003B5D67 2019-02-18 08:37:58 21.2 19 17.7
003B5D67 2019-02-18 08:05:17 21.1 19 17.9
003B5D67 2019-02-18 07:32:33 21.1 19 18.2
003B5D67 2019-02-18 06:59:50 21.1 19 18.1
003B5D67 2019-02-18 06:27:08 21 18 18.2
003B5D67 2019-02-18 05:54:25 21.1 18 18.1
003B5D67 2019-02-18 05:21:43 21 19 18.3
003B5D67 2019-02-18 04:49:01 21.1 19 18.2
003B5D67 2019-02-18 04:16:19 21 19 18.2
003B5D67 2019-02-18 03:43:37 21 19 18.4
003B5D67 2019-02-18 03:10:54 21.1 19 18.5
003B5D67 2019-02-18 02:38:12 21.1 19 18.5
003B5D67 2019-02-18 02:05:29 21.1 19 18.7
003B5D67 2019-02-18 01:32:46 21.1 19 18.7
003B5D67 2019-02-18 01:00:04 21.1 19 18.9
003B5D67 2019-02-18 00:27:21 21.1 19 19
003B5D67 2019-02-17 23:54:39 21.1 19 19
003B5D67 2019-02-17 23:21:56 21.1 19 18.9
003B5D67 2019-02-17 22:49:14 21.1 19 19.2
003B5D67 2019-02-17 22:16:32 21.1 19 19.3
003B5D67 2019-02-17 21:43:49 21.1 20 19.3
003B5D67 2019-02-17 21:11:06 21.1 20 19.5
003B5D67 2019-02-17 20:38:23 21.1 20 19.6
003B5D67 2019-02-17 20:05:40 21.2 20 19.6
003B5D67 2019-02-17 19:32:59 21.2 20 19.6
003B5D67 2019-02-17 19:00:17 21.2 20 19.6
003B5D67 2019-02-17 18:27:36 21.2 20 19.6
003B5D67 2019-02-17 17:54:53 21.2 20 19.7
003B5D67 2019-02-17 17:22:11 21.2 20 20
003B5D67 2019-02-17 16:49:29 21.2 20 19.9
003B5D67 2019-02-17 16:16:46 21.2 20 20
003B5D67 2019-02-17 15:44:02 21.2 20 20
003B5D67 2019-02-17 15:11:20 21.3 21 19.9
003B5D67 2019-02-17 14:38:37 21.3 21 20.1
003B5D67 2019-02-17 14:05:54 21.3 21 20.1
003B5D67 2019-02-17 13:33:12 21.3 21 20.3
003B5D67 2019-02-17 13:00:28 21.3 21 20.3
003B5D67 2019-02-17 12:27:46 21.3 21 20.4
003B5D67 2019-02-17 11:55:03 21.2 21 20.5
003B5D67 2019-02-17 11:22:22 21.2 21 20.4
003B5D67 2019-02-17 10:49:40 21.2 21 20.6
003B5D67 2019-02-17 10:16:57 21.2 21 20.5
003B5D67 2019-02-17 09:44:15 21.1 21 20.6
003B5D67 2019-02-17 09:11:32 21.2 21 20.5
003B5D67 2019-02-17 08:38:50 21.2 21 20.6
003B5D67 2019-02-17 08:06:07 21.2 21 20.7
003B5D67 2019-02-17 07:33:25 21.2 22 20.8
003B5D67 2019-02-17 07:00:42 21.2 22 20.7
003B5D67 2019-02-17 06:28:00 21.2 22 20.8
003B5D67 2019-02-17 05:55:19 21.4 22 21
003B5D67 2019-02-17 05:54:02 21.2 22 21
003B5D67 2019-02-17 05:21:21 21.2 22 21
003B5D67 2019-02-17 04:48:39 21.2 22 21
003B5D67 2019-02-17 04:15:58 21.2 23 20.9
003B5D67 2019-02-17 03:43:17 21.2 23 20.8
003B5D67 2019-02-17 03:10:35 21.2 23 20.8
003B5D67 2019-02-17 02:37:53 21.2 23 20.7
003B5D67 2019-02-17 02:05:12 21.2 24 20.9
003B5D67 2019-02-17 01:32:30 21.2 24 20.9
003B5D67 2019-02-17 00:59:49 21.2 24 20.9
003B5D67 2019-02-17 00:27:08 21.3 24 20.8
003B5D67 2019-02-16 23:54:26 21.2 24 21
003B5D67 2019-02-16 23:21:46 21.3 24 20.9
003B5D67 2019-02-16 22:49:04 21.3 25 20.8
003B5D67 2019-02-16 22:16:23 21.3 25 20.6
003B5D67 2019-02-16 21:43:40 21.3 25 20.6
003B5D67 2019-02-16 21:10:59 21.3 25 20.6
003B5D67 2019-02-16 20:38:17 21.4 25 20.6
003B5D67 2019-02-16 20:05:35 21.5 25 20.5
003B5D67 2019-02-16 19:32:53 21.4 25 20.4
003B5D67 2019-02-16 19:00:11 21.3 25 20.3
003B5D67 2019-02-16 18:27:30 21.3 25 20.2
003B5D67 2019-02-16 17:54:48 21.3 25 20.1
003B5D67 2019-02-16 17:22:06 21.4 25 20.1
003B5D67 2019-02-16 16:49:25 21.4 25 20
003B5D67 2019-02-16 16:16:43 21.5 25 20
003B5D67 2019-02-16 15:44:01 21.5 25 19.9
003B5D67 2019-02-16 15:11:20 21.5 25 19.8
003B5D67 2019-02-16 14:38:38 21.5 25 19.7
003B5D67 2019-02-16 14:05:57 21.5 25 19.7
003B5D67 2019-02-16 13:33:14 21.4 25 19.8
003B5D67 2019-02-16 13:00:32 21.4 25 19.8
003B5D67 2019-02-16 12:27:50 21.4 25 19.6
003B5D67 2019-02-16 11:55:07 21.3 25 19.4
003B5D67 2019-02-16 11:22:28 21.3 25 19.2
003B5D67 2019-02-16 10:49:44 21.3 25 19.2
003B5D67 2019-02-16 10:17:02 21.2 25 19
003B5D67 2019-02-16 09:44:20 21.2 25 19.1
003B5D67 2019-02-16 09:11:38 21.3 25 19.1
003B5D67 2019-02-16 08:38:55 21.2 25 19.2
003B5D67 2019-02-16 08:06:13 21.2 25 19.1
003B5D67 2019-02-16 07:33:29 21.2 26 19.2
003B5D67 2019-02-16 07:00:47 21.3 26 19.2
003B5D67 2019-02-16 06:28:05 21.3 26 19.3
003B5D67 2019-02-16 05:55:22 21.3 26 19.6
003B5D67 2019-02-16 05:22:40 21.2 26 19.7
003B5D67 2019-02-16 04:49:57 21.3 26 19.8
003B5D67 2019-02-16 04:17:15 21.3 26 20.3
003B5D67 2019-02-16 03:44:33 21.3 26 20.4
003B5D67 2019-02-16 03:11:50 21.5 25 20.4
003B5D67 2019-02-16 03:10:35 21.3 25 20.4
003B5D67 2019-02-16 02:37:53 21.3 25 20.5
003B5D67 2019-02-16 02:05:11 21.3 25 20.5
003B5D67 2019-02-16 01:32:29 21.3 25 20.5
003B5D67 2019-02-16 00:59:48 21.4 26 20.8
003B5D67 2019-02-16 00:27:05 21.4 25 20.9
003B5D67 2019-02-15 23:54:23 21.4 26 20.9
003B5D67 2019-02-15 23:21:41 21.4 26 21
003B5D67 2019-02-15 22:49:00 21.5 25 21.2
003B5D67 2019-02-15 22:16:19 21.6 25 21.3
003B5D67 2019-02-15 21:43:37 21.6 26 21.3
003B5D67 2019-02-15 21:10:55 21.6 25 21.6
003B5D67 2019-02-15 20:38:14 21.7 25 21.7
003B5D67 2019-02-15 20:05:32 21.8 25 21.7
003B5D67 2019-02-15 19:32:51 21.9 25 21.9
003B5D67 2019-02-15 19:00:10 22 25 22
003B5D67 2019-02-15 18:27:28 21.9 25 22.1
003B5D67 2019-02-15 17:54:46 21.9 25 22.3
003B5D67 2019-02-15 17:22:06 21.9 25 22.3
003B5D67 2019-02-15 16:49:25 21.9 25 22.4
003B5D67 2019-02-15 16:16:43 21.9 24 23.2
003B5D67 2019-02-15 15:44:02 21.9 24 23.2
003B5D67 2019-02-15 15:11:20 21.9 24 23.1
003B5D67 2019-02-15 14:38:39 21.9 24 23.1
003B5D67 2019-02-15 14:05:58 21.9 24 23.2
003B5D67 2019-02-15 13:33:16 21.9 24 23.3
003B5D67 2019-02-15 13:00:35 21.8 24 23.4
003B5D67 2019-02-15 12:27:54 21.8 24 23.4
003B5D67 2019-02-15 11:55:12 21.7 24 23.5
003B5D67 2019-02-15 11:22:30 21.7 24 23.5
003B5D67 2019-02-15 10:49:48 21.7 25 23.6
003B5D67 2019-02-15 10:17:06 21.7 25 23.7
003B5D67 2019-02-15 09:44:25 21.6 25 23.8
003B5D67 2019-02-15 09:11:43 21.5 25 23.8
003B5D67 2019-02-15 08:39:02 21.5 25 23.9
003B5D67 2019-02-15 08:06:21 21.4 25 23.8
003B5D67 2019-02-15 07:33:39 21.4 25 23.7
003B5D67 2019-02-15 07:00:59 21.4 25 23.8
003B5D67 2019-02-15 06:28:17 21.4 25 23.7
003B5D67 2019-02-15 05:55:36 21.4 25 23.7
003B5D67 2019-02-15 05:22:56 21.4 25 23.6
003B5D67 2019-02-15 04:50:14 21.4 25 23.5
003B5D67 2019-02-15 04:17:32 21.4 26 23.4
003B5D67 2019-02-15 03:44:51 21.4 26 23.3
003B5D67 2019-02-15 03:12:10 21.4 26 23.3
003B5D67 2019-02-15 02:39:28 21.4 26 22.5
003B5D67 2019-02-15 02:06:47 21.5 26 22.5
003B5D67 2019-02-15 01:34:06 21.5 26 22.4
003B5D67 2019-02-15 01:01:24 21.5 26 22.2
003B5D67 2019-02-15 00:28:42 21.7 25 22.2
003B5D67 2019-02-15 00:27:27 21.6 26 22
003B5D67 2019-02-14 23:54:45 21.5 26 21.7
003B5D67 2019-02-14 23:22:03 21.5 25 21.8
003B5D67 2019-02-14 22:49:22 21.6 25 21.6
003B5D67 2019-02-14 22:16:41 21.6 25 21.4
003B5D67 2019-02-14 21:43:59 21.6 25 21.3
003B5D67 2019-02-14 21:11:17 21.7 25 21.3
003B5D67 2019-02-14 20:38:34 21.8 24 21.3
003B5D67 2019-02-14 20:05:52 21.9 24 21.2
003B5D67 2019-02-14 19:33:10 22 24 21
003B5D67 2019-02-14 19:00:29 22.1 24 22.1
003B5D67 2019-02-14 18:27:48 22.2 24 22.1
003B5D67 2019-02-14 17:55:07 22.1 24 22.1
003B5D67 2019-02-14 17:22:27 22.1 24 22.2
003B5D67 2019-02-14 16:49:46 22.1 24 22.3
003B5D67 2019-02-14 16:17:06 22 24 22.4
003B5D67 2019-02-14 15:44:24 22 24 22.7
003B5D67 2019-02-14 15:11:44 21.9 24 22.5
003B5D67 2019-02-14 14:39:03 21.8 24 22.6
003B5D67 2019-02-14 14:06:21 21.7 24 22.6
003B5D67 2019-02-14 13:33:39 21.6 24 22.6
003B5D67 2019-02-14 13:00:57 21.5 24 22.7
003B5D67 2019-02-14 12:28:15 21.4 24 22.7
003B5D67 2019-02-14 11:55:33 21.3 24 22.8
003B5D67 2019-02-14 11:22:52 21.2 25 22.8
003B5D67 2019-02-14 10:50:12 21.1 25 22.9
003B5D67 2019-02-14 10:17:29 21 24 23
003B5D67 2019-02-14 09:44:49 20.9 24 22.9
003B5D67 2019-02-14 09:12:07 20.9 24 23
003B5D67 2019-02-14 08:39:26 20.9 24 23
003B5D67 2019-02-14 08:06:46 20.9 25 22.9
003B5D67 2019-02-14 07:34:06 20.9 25 22.8
003B5D67 2019-02-14 07:01:27 20.9 25 23.5
003B5D67 2019-02-14 06:28:47 20.9 25 23.5
003B5D67 2019-02-14 05:56:07 21 25 23.5
003B5D67 2019-02-14 05:23:27 20.9 25 22.8
003B5D67 2019-02-14 04:50:51 20.9 25 22.7
003B5D67 2019-02-14 04:18:08 21 25 22.5
003B5D67 2019-02-14 03:45:28 20.9 25 22.3
003B5D67 2019-02-14 03:12:48 20.9 25 22.2
003B5D67 2019-02-14 02:40:07 21 25 22.1
003B5D67 2019-02-14 02:07:26 21 25 21.9
003B5D67 2019-02-14 01:34:46 21 25 22
003B5D67 2019-02-14 01:02:05 21 25 21.8
003B5D67 2019-02-14 00:29:25 21 25 21.6
003B5D67 2019-02-13 23:56:44 21 25 21.5
003B5D67 2019-02-13 23:24:03 21.1 25 21.4
003B5D67 2019-02-13 22:51:23 21.1 25 21.2
003B5D67 2019-02-13 22:18:42 21.1 25 21.4
003B5D67 2019-02-13 21:46:02 21.4 25 21.2
003B5D67 2019-02-13 21:44:46 21.2 25 21
003B5D67 2019-02-13 21:12:06 21.3 25 21
003B5D67 2019-02-13 20:39:26 21.3 25 20.8
003B5D67 2019-02-13 20:06:45 21.4 25 20.8
003B5D67 2019-02-13 19:34:04 21.4 25 20.8
003B5D67 2019-02-13 19:01:24 21.5 25 21
003B5D67 2019-02-13 18:28:43 21.5 26 21
003B5D67 2019-02-13 17:56:03 21.5 26 19.4
003B5D67 2019-02-13 17:23:21 21.4 26 19.2
003B5D67 2019-02-13 16:50:40 21.4 26 19
003B5D67 2019-02-13 16:17:58 21.3 25 19
003B5D67 2019-02-13 15:45:17 21.3 25 19.3
003B5D67 2019-02-13 15:12:36 21.2 25 19.2
003B5D67 2019-02-13 14:39:54 21.2 24 19.4
003B5D67 2019-02-13 14:07:12 21.2 24 19.4
003B5D67 2019-02-13 13:34:32 21.2 24 19.4
003B5D67 2019-02-13 13:01:50 21.2 24 19.3
003B5D67 2019-02-13 12:29:09 21.2 24 19.5
003B5D67 2019-02-13 11:56:29 21.1 24 19.5
003B5D67 2019-02-13 11:23:45 21 24 19.5
003B5D67 2019-02-13 10:51:03 21 23 19.6
003B5D67 2019-02-13 10:18:22 20.9 23 19.5
003B5D67 2019-02-13 09:45:39 20.9 22 19.7
003B5D67 2019-02-13 09:12:57 20.9 22 19.5
003B5D67 2019-02-13 08:40:14 20.8 21 19.6
003B5D67 2019-02-13 08:07:32 20.8 20 19.6
003B5D67 2019-02-13 07:34:50 20.9 20 19.7
003B5D67 2019-02-13 07:02:07 20.9 20 19.7
003B5D67 2019-02-13 06:29:26 20.9 20 19.7
003B5D67 2019-02-13 05:56:43 20.9 20 19.4
003B5D67 2019-02-13 05:24:01 20.9 20 19.4
003B5D67 2019-02-13 04:51:19 20.9 20 20.8
003B5D67 2019-02-13 04:18:38 20.9 20 20.9
003B5D67 2019-02-13 03:45:55 20.9 20 20.8
003B5D67 2019-02-13 03:13:13 20.9 20 20.7
003B5D67 2019-02-13 02:40:31 21 20 20.7
003B5D67 2019-02-13 02:07:48 20.9 20 20.6
003B5D67 2019-02-13 01:35:06 21 20 20.6
003B5D67 2019-02-13 01:02:23 21 20 20.4
003B5D67 2019-02-13 00:29:41 21 20 20.2
003B5D67 2019-02-12 23:56:58 21 20 20.1
003B5D67 2019-02-12 23:24:16 21.1 20 20.1
003B5D67 2019-02-12 22:51:34 21.1 20 20.3
003B5D67 2019-02-12 22:18:52 21.2 21 20.4
003B5D67 2019-02-12 21:46:10 21.3 21 20.5
003B5D67 2019-02-12 21:13:26 21.4 21 20.4
003B5D67 2019-02-12 20:40:43 21.5 21 20.5
003B5D67 2019-02-12 20:08:00 21.6 21 20.3
003B5D67 2019-02-12 19:35:18 21.6 21 20.3
003B5D67 2019-02-12 19:02:35 21.9 20 20.3
003B5D67 2019-02-12 19:01:19 21.7 21 20.2
003B5D67 2019-02-12 18:28:36 21.8 20 20.1
003B5D67 2019-02-12 17:55:53 21.8 20 20
003B5D67 2019-02-12 17:23:12 22 20 20
003B5D67 2019-02-12 16:50:29 22.1 20 20.1
003B5D67 2019-02-12 16:17:46 22.2 20 19.9
003B5D67 2019-02-12 15:45:04 22.2 21 17.7
003B5D67 2019-02-12 15:12:20 22.2 21 17.5
003B5D67 2019-02-12 14:39:36 21.9 21 17.7
003B5D67 2019-02-12 14:06:52 21.5 22 18.1
003B5D67 2019-02-12 13:34:08 21.4 22 17.8
003B5D67 2019-02-12 13:01:27 21.3 22 18
003B5D67 2019-02-12 12:28:41 21.3 22 17.9
003B5D67 2019-02-12 11:55:57 21.3 22 18
003B5D67 2019-02-12 11:23:14 21.2 23 18
003B5D67 2019-02-12 10:50:31 21.2 23 17.7
003B5D67 2019-02-12 10:17:48 21.1 23 17.8
003B5D67 2019-02-12 09:45:06 21.1 24 17.1
003B5D67 2019-02-12 09:12:23 21 24 16.9
003B5D67 2019-02-12 08:39:40 20.9 24 16.8
003B5D67 2019-02-12 08:06:59 20.9 25 16.9
003B5D67 2019-02-12 07:34:17 21 26 17.2
003B5D67 2019-02-12 07:01:37 21 26 17.6
003B5D67 2019-02-12 06:28:53 21 26 17.4
003B5D67 2019-02-12 05:56:12 21 26 17.3
003B5D67 2019-02-12 05:23:31 21 27 17.3
003B5D67 2019-02-12 04:50:49 21 27 17.4
003B5D67 2019-02-12 04:18:08 21 27 17.5
003B5D67 2019-02-12 03:45:25 21 27 17.4
003B5D67 2019-02-12 03:12:43 21 27 17.2
003B5D67 2019-02-12 02:40:00 21 27 17.4
003B5D67 2019-02-12 02:07:18 21 27 17.5
003B5D67 2019-02-12 01:34:35 21.1 27 17.7
003B5D67 2019-02-12 01:01:53 21.1 27 17.6
003B5D67 2019-02-12 00:29:10 21.1 27 17.2
003B5D67 2019-02-11 23:56:27 21.2 27 17.4
003B5D67 2019-02-11 23:23:43 21.2 27 17.2
003B5D67 2019-02-11 22:50:59 21.3 27 17.5
003B5D67 2019-02-11 22:18:15 21.3 27 17.7
003B5D67 2019-02-11 21:45:31 21.4 27 17.9
003B5D67 2019-02-11 21:12:47 21.5 27 18.2
003B5D67 2019-02-11 20:40:03 21.6 27 18.4
003B5D67 2019-02-11 20:07:18 21.7 27 18.8
003B5D67 2019-02-11 19:34:34 21.8 27 19.2
003B5D67 2019-02-11 19:01:50 21.9 27 18.9
003B5D67 2019-02-11 18:29:06 22 27 19.4
003B5D67 2019-02-11 17:56:21 22.1 28 17.8
003B5D67 2019-02-11 17:23:36 22.2 28 13.9
003B5D67 2019-02-11 16:50:51 22.3 28 16.4
003B5D67 2019-02-11 16:18:06 22.3 34 0